Content
SEND FEEDBACK

Daily
Averages
Monthly
Summary
United States of America

STATEN ISLAND, NEW YORK


Home > North America > United States > New York
Elevation: 152 feet     Latitude: 40 35N     Longitude: 074 09W

WEATHER
 
SELECT A DAY
Number of Records: 189,864;   Date Range: 1/1/95 - 9/16/14
 
SHARE

PRINT THIS DATA

[ ← Previous Day ]
WEATHER ALMANAC - DECEMBER 8, 2013
[ Next Day → ]
[ °C ]   °F
Weather ElementAverageHighLow
Temperature30 °F33.1 °F (12:51 pm)28 °F (4:51 am)
Dewpoint21.7 °F30.2 °F (11:02 pm)12.9 °F (2:51 am)
Humidity73.5 %100 % (11:02 pm)51 % (1:51 am)
Barometer30.51 in30.61 in (8:51 am)30.38 in (11:51 pm)
Wind Speed8.3 mph12.7 mph (11:51 pm)
Weather ElementAverage
Visibility5.8 mi
Wind DirectionENE (66.9 °)

Weather ElementTotal
Precipitation0.18 in
Heating Degree Days34.5 (Base 65)
Averaged from 35 records on December 8, 2013
WEATHER CONDITIONS BREAKOUT
WIND DIRECTION BREAKOUT
WEATHER BY HOUR - DECEMBER 8, 2013
[ °C ]   °F
Local TimeTemperatureDewpointHumidityBarometerVisibilityWind DirectionWind SpeedGust SpeedPrecipitationEventsConditions
1:51 AM30.0 °F14.0 °F51 %30.53 in10.0 miNNW (340°)8.1 mphPartly Cloudy
2:51 AM28.9 °F12.9 °F51 %30.55 in10.0 miNNW (340°)8.1 mphScattered Clouds
3:51 AM28.9 °F12.9 °F51 %30.56 in10.0 miNNW (330°)10.4 mphScattered Clouds
4:51 AM28.0 °F14.0 °F56 %30.55 in10.0 miNorth (350°)10.4 mphScattered Clouds
5:51 AM28.0 °F14.0 °F56 %30.56 in10.0 miNorth (360°)8.1 mphPartly Cloudy
6:51 AM28.0 °F15.1 °F58 %30.57 in10.0 miNorth (10°)9.2 mphMostly Cloudy
7:51 AM28.9 °F15.1 °F56 %30.59 in10.0 miNorth (10°)8.1 mphOvercast
8:51 AM30.0 °F15.1 °F54 %30.61 in10.0 miNNE (20°)6.9 mphOvercast
9:51 AM30.9 °F16.0 °F54 %30.59 in10.0 miNorth (10°)6.9 mphOvercast
10:51 AM32.0 °F17.1 °F54 %30.58 in10.0 miNNE (20°)10.4 mphOvercast
11:51 AM32.0 °F18.0 °F56 %30.56 in10.0 miNNE (30°)8.1 mphOvercast
12:51 PM33.1 °F17.1 °F52 %30.55 in10.0 miNNE (30°)6.9 mphOvercast
1:51 PM33.1 °F17.1 °F52 %30.54 in10.0 miNorth (10°)6.9 mphOvercast
2:51 PM33.1 °F17.1 °F52 %30.51 in10.0 miCalmOvercast
3:51 PM33.1 °F18.0 °F54 %30.52 in10.0 miNNE (30°)4.6 mph0.00 inSnowLight Snow
4:32 PM32.0 °F19.4 °F60 %30.52 in7.0 miNE (40°)5.8 mph0.00 inSnowLight Snow
4:51 PM30.9 °F21.9 °F69 %30.53 in3.0 miNE (40°)5.8 mph0.00 inSnowLight Snow
4:56 PM30.2 °F21.2 °F69 %30.53 in2.0 miNNE (20°)10.4 mph0.00 inSnowLight Snow
5:05 PM30.2 °F23.0 °F75 %30.53 in1.0 miNNE (30°)9.2 mph0.00 inSnowLight Snow
5:49 PM28.4 °F26.6 °F93 %30.52 in1.0 miNNE (20°)9.2 mph0.02 inSnowLight Snow
5:51 PM28.9 °F27.0 °F92 %30.52 in1.0 miNNE (20°)8.1 mph0.02 inSnowLight Snow
6:04 PM28.4 °F26.6 °F93 %30.52 in1.5 miNNE (20°)6.9 mph0.01 inSnowLight Snow
6:25 PM28.4 °F26.6 °F93 %30.51 in2.0 miNNE (20°)8.1 mph0.02 inSnowLight Snow
6:36 PM28.4 °F26.6 °F93 %30.52 in3.0 miNNE (20°)6.9 mph0.02 inSnowLight Snow
6:51 PM28.9 °F27.0 °F92 %30.51 in4.0 miNorth (10°)9.2 mph0.02 inSnowLight Snow
7:11 PM28.4 °F26.6 °F93 %30.50 in5.0 miNNE (20°)10.4 mph0.00 inSnowLight Snow
7:51 PM28.9 °F26.1 °F89 %30.50 in6.0 miNNE (30°)11.5 mph0.00 inSnowLight Snow
8:31 PM28.4 °F26.6 °F93 %30.48 in2.5 miNNE (20°)9.2 mph0.00 inSnowLight Snow
8:51 PM28.9 °F27.0 °F92 %30.45 in2.0 miNNE (30°)8.1 mph0.00 inLight Freezing Drizzle
9:27 PM30.2 °F28.4 °F93 %30.44 in2.5 miNNE (20°)8.1 mph0.00 inLight Freezing Drizzle
9:51 PM30.0 °F28.0 °F92 %30.42 in2.5 miNNE (20°)8.1 mph0.00 inLight Freezing Drizzle
10:19 PM30.2 °F28.4 °F93 %30.40 in1.5 miNNE (20°)9.2 mph0.01 inLight Freezing Drizzle
10:51 PM30.9 °F30.0 °F96 %30.42 in1.2 miNorth (10°)10.4 mph0.02 inLight Freezing Drizzle
11:02 PM30.2 °F30.2 °F100 %30.41 in1.2 miNNE (20°)11.5 mph0.01 inRainLight Freezing Rain
11:51 PM30.9 °F30.0 °F96 %30.38 in2.0 miNNE (20°)12.7 mph0.03 inRainLight Freezing Rain
Hourly data recorded from KEWR, located miles away from Staten Island, New York







STORIES FROM OUR PARTNERS